EN

Hourly Weather Ladygino

Today, 3 August, Tuesday

Time Temperature Precipitation Wind Pressure Humidity
00:00 +19°C° 0.1 mm 2 mps 737 mmHg 90%
01:00 +19°C° 0.1 mm 2 mps 737 mmHg 92%
02:00 +18°C° 0.1 mm 3 mps 737 mmHg 93%
03:00 +18°C° 0 mm 3 mps 737 mmHg 93%
04:00 +18°C° 0 mm 3 mps 738 mmHg 93%
05:00 +18°C° 0 mm 3 mps 738 mmHg 94%
06:00 +19°C° 0 mm 3 mps 738 mmHg 88%
07:00 +20°C° 0 mm 3 mps 739 mmHg 82%
08:00 +21°C° 0 mm 3 mps 739 mmHg 76%
09:00 +22°C° 0 mm 4 mps 739 mmHg 68%
10:00 +23°C° 0 mm 4 mps 740 mmHg 61%
11:00 +25°C° 0 mm 4 mps 740 mmHg 53%
12:00 +26°C° 0 mm 4 mps 740 mmHg 51%
13:00 +26°C° 0 mm 4 mps 740 mmHg 49%
14:00 +27°C° 0 mm 4 mps 740 mmHg 46%
15:00 +26°C° 0 mm 4 mps 740 mmHg 47%
16:00 +26°C° 0 mm 4 mps 740 mmHg 48%
17:00 +25°C° 0 mm 4 mps 740 mmHg 49%
18:00 +24°C° 0 mm 3 mps 740 mmHg 53%
19:00 +22°C° 0 mm 3 mps 740 mmHg 56%
20:00 +21°C° 0 mm 2 mps 741 mmHg 59%
21:00 +21°C° 0 mm 2 mps 741 mmHg 60%
22:00 +20°C° 0 mm 2 mps 741 mmHg 62%
23:00 +20°C° 0 mm 2 mps 741 mmHg 64%

Tomorrow, 4 August, Wednesday

Time Temperature Precipitation Wind Pressure Humidity
00:00 +20°C° 0 mm 2 mps 742 mmHg 63%
01:00 +20°C° 0 mm 1 mps 742 mmHg 63%
02:00 +20°C° 0 mm 1 mps 742 mmHg 62%
03:00 +20°C° 0 mm 1 mps 742 mmHg 62%
04:00 +20°C° 0 mm 1 mps 742 mmHg 62%
05:00 +19°C° 0 mm 2 mps 742 mmHg 62%
06:00 +19°C° 0 mm 2 mps 743 mmHg 59%
07:00 +20°C° 0 mm 2 mps 743 mmHg 56%
08:00 +21°C° 0 mm 2 mps 743 mmHg 53%
09:00 +23°C° 0 mm 2 mps 743 mmHg 49%
10:00 +24°C° 0 mm 3 mps 743 mmHg 45%
11:00 +25°C° 0 mm 3 mps 744 mmHg 41%
12:00 +25°C° 0 mm 3 mps 743 mmHg 39%
13:00 +26°C° 0 mm 4 mps 743 mmHg 37%
14:00 +26°C° 0 mm 4 mps 743 mmHg 35%
15:00 +25°C° 0 mm 4 mps 743 mmHg 38%
16:00 +25°C° 0 mm 4 mps 743 mmHg 40%
17:00 +23°C° 0 mm 4 mps 743 mmHg 43%
18:00 +22°C° 0 mm 3 mps 744 mmHg 47%
19:00 +20°C° 0 mm 2 mps 744 mmHg 52%
20:00 +19°C° 0 mm 1 mps 744 mmHg 57%
21:00 +19°C° 0 mm 1 mps 744 mmHg 58%
22:00 +18°C° 0 mm 1 mps 744 mmHg 60%
23:00 +18°C° 0 mm 1 mps 744 mmHg 61%

Day after tomorrow, 5 August, Thursday

Time Temperature Precipitation Wind Pressure Humidity
00:00 +16°C° 0 mm 1 mps 744 mmHg 62%
01:00 +16°C° 0 mm 1 mps 744 mmHg 63%
02:00 +16°C° 0 mm 1 mps 744 mmHg 64%
03:00 +16°C° 0 mm 1 mps 744 mmHg 65%
04:00 +16°C° 0 mm 1 mps 744 mmHg 65%
05:00 +16°C° 0 mm 1 mps 744 mmHg 66%
06:00 +18°C° 0 mm 2 mps 744 mmHg 59%
07:00 +20°C° 0 mm 2 mps 744 mmHg 52%
08:00 +23°C° 0 mm 2 mps 744 mmHg 45%
09:00 +25°C° 0 mm 2 mps 744 mmHg 42%
10:00 +26°C° 0 mm 2 mps 744 mmHg 39%
11:00 +27°C° 0 mm 2 mps 744 mmHg 35%
12:00 +28°C° 0 mm 2 mps 743 mmHg 34%
13:00 +28°C° 0 mm 3 mps 743 mmHg 33%
14:00 +29°C° 0 mm 3 mps 743 mmHg 32%
15:00 +29°C° 0 mm 2 mps 742 mmHg 34%
16:00 +28°C° 0 mm 2 mps 742 mmHg 36%
17:00 +28°C° 0 mm 2 mps 742 mmHg 38%
18:00 +26°C° 0 mm 2 mps 742 mmHg 41%
19:00 +25°C° 0 mm 3 mps 742 mmHg 44%
20:00 +22°C° 0 mm 3 mps 741 mmHg 48%
21:00 +21°C° 0 mm 3 mps 741 mmHg 49%
22:00 +21°C° 0 mm 3 mps 741 mmHg 50%
23:00 +21°C° 0 mm 3 mps 740 mmHg 52%

6 August, Friday

Time Temperature Precipitation Wind Pressure Humidity
00:00 +20°C° 0 mm 3 mps 740 mmHg 52%
01:00 +20°C° 0 mm 3 mps 740 mmHg 53%
02:00 +19°C° 0 mm 3 mps 740 mmHg 53%
03:00 +19°C° 0 mm 3 mps 740 mmHg 55%
04:00 +19°C° 0 mm 3 mps 740 mmHg 57%
05:00 +20°C° 0 mm 3 mps 740 mmHg 58%
06:00 +21°C° 0 mm 4 mps 740 mmHg 54%
07:00 +23°C° 0 mm 4 mps 740 mmHg 50%
08:00 +26°C° 0 mm 5 mps 740 mmHg 45%
09:00 +28°C° 0 mm 5 mps 740 mmHg 41%
10:00 +30°C° 0 mm 5 mps 740 mmHg 36%
11:00 +33°C° 0 mm 6 mps 740 mmHg 32%
12:00 +33°C° 0 mm 6 mps 739 mmHg 31%
13:00 +34°C° 0 mm 5 mps 739 mmHg 29%
14:00 +34°C° 0 mm 5 mps 739 mmHg 28%
15:00 +34°C° 0 mm 5 mps 739 mmHg 30%
16:00 +34°C° 0 mm 4 mps 739 mmHg 31%
17:00 +33°C° 0 mm 4 mps 738 mmHg 33%
18:00 +30°C° 0 mm 4 mps 738 mmHg 36%
19:00 +28°C° 0 mm 4 mps 738 mmHg 40%
20:00 +26°C° 0 mm 5 mps 738 mmHg 43%
21:00 +26°C° 0 mm 5 mps 738 mmHg 43%
22:00 +25°C° 0 mm 5 mps 738 mmHg 42%
23:00 +25°C° 0 mm 5 mps 738 mmHg 42%

7 August, Saturday

Time Temperature Precipitation Wind Pressure Humidity
00:00 +23°C° 0 mm 5 mps 738 mmHg 43%
01:00 +23°C° 0 mm 4 mps 738 mmHg 43%
02:00 +22°C° 0 mm 4 mps 738 mmHg 44%
03:00 +22°C° 0 mm 4 mps 738 mmHg 44%
04:00 +21°C° 0 mm 4 mps 738 mmHg 45%
05:00 +21°C° 0 mm 3 mps 738 mmHg 45%
06:00 +24°C° 0 mm 3 mps 739 mmHg 42%
07:00 +25°C° 0 mm 4 mps 739 mmHg 40%
08:00 +27°C° 0 mm 4 mps 739 mmHg 37%
09:00 +29°C° 0 mm 4 mps 739 mmHg 34%
10:00 +32°C° 0 mm 4 mps 739 mmHg 30%
11:00 +34°C° 0 mm 4 mps 739 mmHg 27%
12:00 +34°C° 0 mm 5 mps 739 mmHg 28%
13:00 +34°C° 0 mm 5 mps 739 mmHg 30%
14:00 +34°C° 0 mm 6 mps 739 mmHg 32%
15:00 +30°C° 0 mm 5 mps 739 mmHg 41%
16:00 +28°C° 0 mm 4 mps 739 mmHg 50%
17:00 +26°C° 0 mm 3 mps 739 mmHg 59%
18:00 +25°C° 0.2 mm 2 mps 739 mmHg 63%
19:00 +24°C° 0.2 mm 1 mps 739 mmHg 67%
20:00 +23°C° 0.2 mm 1 mps 739 mmHg 71%
21:00 +23°C° 0.2 mm 1 mps 740 mmHg 73%
22:00 +23°C° 0.2 mm 1 mps 740 mmHg 75%
23:00 +22°C° 0.2 mm 1 mps 740 mmHg 78%

8 August, Sunday

Time Temperature Precipitation Wind Pressure Humidity
00:00 +21°C° 0.1 mm 2 mps 740 mmHg 79%
01:00 +21°C° 0.1 mm 2 mps 741 mmHg 81%
02:00 +20°C° 0.1 mm 2 mps 741 mmHg 83%
03:00 +20°C° 0.3 mm 3 mps 741 mmHg 85%
04:00 +20°C° 0.3 mm 3 mps 741 mmHg 87%
05:00 +20°C° 0.3 mm 3 mps 741 mmHg 89%
06:00 +21°C° 0.1 mm 3 mps 741 mmHg 81%
07:00 +22°C° 0.1 mm 3 mps 741 mmHg 73%
08:00 +25°C° 0.1 mm 3 mps 742 mmHg 65%
09:00 +26°C° 0 mm 4 mps 742 mmHg 58%
10:00 +28°C° 0 mm 4 mps 742 mmHg 51%
11:00 +30°C° 0 mm 4 mps 743 mmHg 45%
12:00 +30°C° 0 mm 5 mps 743 mmHg 44%
13:00 +30°C° 0 mm 5 mps 743 mmHg 43%
14:00 +30°C° 0 mm 5 mps 743 mmHg 43%
15:00 +30°C° 0 mm 5 mps 743 mmHg 43%
16:00 +30°C° 0 mm 4 mps 743 mmHg 43%
17:00 +29°C° 0 mm 4 mps 743 mmHg 43%
18:00 +27°C° 0 mm 3 mps 743 mmHg 48%
19:00 +25°C° 0 mm 3 mps 743 mmHg 53%
20:00 +24°C° 0 mm 2 mps 744 mmHg 58%
21:00 +23°C° 0 mm 2 mps 744 mmHg 59%
22:00 +23°C° 0 mm 2 mps 744 mmHg 59%
23:00 +23°C° 0 mm 2 mps 744 mmHg 60%
Show more